星链-1639 (STARLINK-1639 )

导读

STARLINK-1639是美国太空探索技术公司(SpaceX)星链(Starlink)低轨卫星互联网星座的组成部分,于2020年8月18日发射升空,归属美国发射。星链星座旨在为全球提供高速互联网接入服务,该卫星承担星座组网任务,运行在近地轨道,助力实现全球范围的网络覆盖,推进星链星座部署进程。

基本信息
目录编号:
46135
目录名称:
STARLINK-1639
国际标识:
2020-057U
轨道中心:
EARTH
卫星名称:
星链-1639
卫星全名:
星链-1639 (STARLINK-1639 )
卫星状态:
已陨落 最后检测时间 2025-08-09
发射日期:
2020-08-18 UTC
国别 :
美国 (US)
星等 :
--
该卫星已列入 空间交会检测服务 Space Conjunction Data Service (SCDS) ,当前飞行风险评估等级: 无高风险
轨道信息
数据来源 国际轨道数据
星历时间: 2025-08-09T21:48:52+0800
轨道信息已过期397天
半长轴: 6517.746km
偏心率: 0.0009089
轨道倾角: 53.015°
近地点辐角 272.846°
升交点赤经 91.269°
平近点角 176.497°
近地点: 133.687km
远地点: 145.535km
周期: 87.278分钟
每日圈数: 16.498965
详细信息
固有亮度:
5
最大亮度:
2.5
卫星平台:
Starlink V1.0
覆盖范围:
全球
运营商:
太空探索技术公司
运营商所在国:
美国
制造商(研发单位):
太空探索技术公司
制造商所在国:
美国
使用方式:
暂无
卫星简介
星链(Starlink)计划是由太空探索技术公司(SpaceX)提出的一个巨型低轨卫星互联网星座项目,计划在2019年至2024年间在太空搭建由约1.2万颗卫星组成的“星链”网络,其中1584颗将部署在地球上空550千米处的近地轨道,并从2020年开始工作。该卫星仍在工作。
与全量物体交会距离演化趋势
与全量物体交会风险概率演化趋势